JCSAT-2B

Last updated on Wed Sep 17 2025 00:02:49 GMT+0000 (Coordinated Universal Time)

1 41471U 16028A 25259.48857811 -.00000185 00000+0 00000+0 0 9992 2 41471 0.0188 149.6740 0000992 41.9686 133.9279 1.00270155 34373
UTC large
Height (km)
Speed (km/s)
/
Latitude / Longitude
Inclination (degrees)
Orbital Period (minutes)
Azimuth
Elevation
Range (km)
Doppler Factor

Next 0 passes for location: London (51.5072 / 0.1276)

Sorry there are no passes over London.